• Em Portugal
  • Lista de países
  • Para 7 dias
  • Temperatura da água
  • Mapas de satélite
  • Mapa do tempo
  • Widgets de tempo
  • user-avatar
    Iniciar Sessão

    Previsão horária em Golinsk

    Hoje, 20 Julho, Sexta-feira

    Tempo Temperatura Precipitação Vento Pressão Humidade
    00:00 +15°C° 0 mm 2 m/s 720 mmHg 93%
    01:00 +15°C° 0 mm 2 m/s 720 mmHg 93%
    02:00 +15°C° 0 mm 2 m/s 720 mmHg 94%
    03:00 +15°C° 0 mm 2 m/s 720 mmHg 94%
    04:00 +14°C° 0 mm 2 m/s 720 mmHg 95%
    05:00 +16°C° 0 mm 2 m/s 720 mmHg 89%
    06:00 +17°C° 0 mm 2 m/s 721 mmHg 83%
    07:00 +18°C° 0 mm 2 m/s 720 mmHg 75%
    08:00 +19°C° 0 mm 2 m/s 721 mmHg 68%
    09:00 +21°C° 0 mm 2 m/s 721 mmHg 61%
    10:00 +23°C° 0 mm 2 m/s 721 mmHg 54%
    11:00 +24°C° 0 mm 2 m/s 721 mmHg 51%
    12:00 +25°C° 0 mm 2 m/s 720 mmHg 49%
    13:00 +25°C° 0 mm 2 m/s 720 mmHg 46%
    14:00 +25°C° 0 mm 2 m/s 720 mmHg 46%
    15:00 +25°C° 0 mm 2 m/s 720 mmHg 45%
    16:00 +26°C° 0 mm 2 m/s 720 mmHg 45%
    17:00 +24°C° 0 mm 2 m/s 720 mmHg 52%
    18:00 +23°C° 0 mm 2 m/s 719 mmHg 58%
    19:00 +20°C° 0 mm 2 m/s 719 mmHg 65%
    20:00 +20°C° 0 mm 1 m/s 719 mmHg 68%
    21:00 +18°C° 0 mm 1 m/s 719 mmHg 71%
    22:00 +16°C° 0 mm 1 m/s 719 mmHg 75%
    23:00 +15°C° 0 mm 1 m/s 719 mmHg 76%

    Amanhã, 21 Julho, Sábado

    Tempo Temperatura Precipitação Vento Pressão Humidade
    00:00 +15°C° 0 mm 1 m/s 719 mmHg 77%
    01:00 +15°C° 0 mm 1 m/s 719 mmHg 77%
    02:00 +14°C° 0 mm 1 m/s 719 mmHg 78%
    03:00 +14°C° 0 mm 1 m/s 718 mmHg 79%
    04:00 +14°C° 0 mm 1 m/s 718 mmHg 80%
    05:00 +16°C° 0 mm 1 m/s 718 mmHg 75%
    06:00 +16°C° 0 mm 0 m/s 719 mmHg 70%
    07:00 +18°C° 0 mm 0 m/s 719 mmHg 65%
    08:00 +20°C° 0 mm 0 m/s 719 mmHg 60%
    09:00 +21°C° 0 mm 0 m/s 719 mmHg 55%
    10:00 +23°C° 0 mm 0 m/s 719 mmHg 51%
    11:00 +25°C° 0 mm 1 m/s 719 mmHg 49%
    12:00 +26°C° 0 mm 1 m/s 719 mmHg 47%
    13:00 +26°C° 0 mm 1 m/s 719 mmHg 46%
    14:00 +26°C° 0 mm 1 m/s 718 mmHg 46%
    15:00 +26°C° 0 mm 1 m/s 718 mmHg 46%
    16:00 +26°C° 0 mm 1 m/s 718 mmHg 46%
    17:00 +25°C° 0 mm 1 m/s 718 mmHg 52%
    18:00 +24°C° 0 mm 1 m/s 718 mmHg 58%
    19:00 +22°C° 0 mm 1 m/s 718 mmHg 64%
    20:00 +21°C° 0 mm 1 m/s 718 mmHg 68%
    21:00 +19°C° 0 mm 1 m/s 718 mmHg 71%
    22:00 +18°C° 0 mm 1 m/s 718 mmHg 75%
    23:00 +18°C° 0 mm 1 m/s 718 mmHg 77%

    Depois de amanhã, 22 Julho, Domingo

    Tempo Temperatura Precipitação Vento Pressão Humidade
    00:00 +16°C° 0 mm 1 m/s 718 mmHg 78%
    01:00 +16°C° 0 mm 1 m/s 718 mmHg 80%
    02:00 +15°C° 0 mm 1 m/s 718 mmHg 81%
    03:00 +15°C° 0 mm 1 m/s 718 mmHg 81%
    04:00 +14°C° 0 mm 1 m/s 717 mmHg 82%
    05:00 +16°C° 0 mm 1 m/s 718 mmHg 77%
    06:00 +19°C° 0 mm 1 m/s 718 mmHg 72%
    07:00 +21°C° 0 mm 1 m/s 718 mmHg 67%
    08:00 +22°C° 0 mm 1 m/s 718 mmHg 62%
    09:00 +23°C° 0 mm 1 m/s 718 mmHg 57%
    10:00 +25°C° 0 mm 2 m/s 718 mmHg 52%
    11:00 +25°C° 0 mm 2 m/s 718 mmHg 50%
    12:00 +26°C° 0 mm 2 m/s 718 mmHg 49%
    13:00 +26°C° 0 mm 2 m/s 718 mmHg 47%
    14:00 +26°C° 0 mm 2 m/s 718 mmHg 47%
    15:00 +26°C° 0 mm 2 m/s 718 mmHg 48%
    16:00 +26°C° 0 mm 2 m/s 717 mmHg 48%
    17:00 +25°C° 0 mm 2 m/s 717 mmHg 54%
    18:00 +23°C° 0 mm 2 m/s 717 mmHg 59%
    19:00 +21°C° 0 mm 2 m/s 717 mmHg 65%
    20:00 +20°C° 0 mm 2 m/s 717 mmHg 68%
    21:00 +19°C° 0 mm 1 m/s 717 mmHg 70%
    22:00 +18°C° 0 mm 1 m/s 717 mmHg 73%
    23:00 +16°C° 0 mm 1 m/s 717 mmHg 74%

    23 Julho, Segunda-feira

    Tempo Temperatura Precipitação Vento Pressão Humidade
    00:00 +16°C° 0 mm 1 m/s 717 mmHg 76%
    01:00 +15°C° 0 mm 1 m/s 717 mmHg 77%
    02:00 +15°C° 0 mm 1 m/s 717 mmHg 79%
    03:00 +15°C° 0 mm 1 m/s 717 mmHg 81%
    04:00 +14°C° 0 mm 1 m/s 717 mmHg 83%
    05:00 +16°C° 0 mm 2 m/s 717 mmHg 79%
    06:00 +18°C° 0 mm 2 m/s 718 mmHg 76%
    07:00 +19°C° 0 mm 2 m/s 718 mmHg 73%
    08:00 +21°C° 0 mm 2 m/s 718 mmHg 67%
    09:00 +22°C° 0 mm 3 m/s 719 mmHg 62%
    10:00 +25°C° 0 mm 3 m/s 719 mmHg 56%
    11:00 +25°C° 0 mm 4 m/s 719 mmHg 54%
    12:00 +26°C° 0 mm 4 m/s 719 mmHg 51%
    13:00 +27°C° 0 mm 4 m/s 718 mmHg 49%
    14:00 +26°C° 0 mm 4 m/s 718 mmHg 49%
    15:00 +26°C° 0 mm 4 m/s 718 mmHg 50%
    16:00 +26°C° 0 mm 4 m/s 718 mmHg 50%
    17:00 +25°C° 0 mm 3 m/s 718 mmHg 56%
    18:00 +24°C° 0 mm 3 m/s 718 mmHg 61%
    19:00 +23°C° 0 mm 2 m/s 719 mmHg 67%
    20:00 +20°C° 0 mm 2 m/s 719 mmHg 69%
    21:00 +20°C° 0 mm 1 m/s 719 mmHg 72%
    22:00 +18°C° 0 mm 1 m/s 719 mmHg 74%
    23:00 +18°C° 0 mm 1 m/s 719 mmHg 75%

    24 Julho, Terça-feira

    Tempo Temperatura Precipitação Vento Pressão Humidade
    00:00 +18°C° 0 mm 1 m/s 719 mmHg 75%
    01:00 +16°C° 0 mm 1 m/s 719 mmHg 76%
    02:00 +16°C° 0 mm 1 m/s 719 mmHg 77%
    03:00 +16°C° 0 mm 1 m/s 719 mmHg 79%
    04:00 +16°C° 0 mm 1 m/s 719 mmHg 81%
    05:00 +18°C° 0 mm 1 m/s 719 mmHg 78%
    06:00 +19°C° 0 mm 1 m/s 719 mmHg 75%
    07:00 +20°C° 0 mm 2 m/s 720 mmHg 72%
    08:00 +21°C° 0,1 mm 2 m/s 720 mmHg 68%
    09:00 +22°C° 0,1 mm 3 m/s 720 mmHg 64%
    10:00 +24°C° 0,1 mm 3 m/s 720 mmHg 60%
    11:00 +25°C° 0,1 mm 3 m/s 719 mmHg 58%
    12:00 +25°C° 0,1 mm 3 m/s 719 mmHg 56%
    13:00 +25°C° 0,1 mm 4 m/s 719 mmHg 54%
    14:00 +25°C° 0 mm 4 m/s 719 mmHg 54%
    15:00 +25°C° 0 mm 4 m/s 718 mmHg 54%
    16:00 +25°C° 0 mm 4 m/s 718 mmHg 53%
    17:00 +24°C° 0 mm 3 m/s 718 mmHg 60%
    18:00 +22°C° 0 mm 3 m/s 718 mmHg 66%
    19:00 +21°C° 0 mm 2 m/s 718 mmHg 72%
    20:00 +19°C° 0 mm 2 m/s 718 mmHg 77%
    21:00 +18°C° 0 mm 1 m/s 718 mmHg 82%
    22:00 +16°C° 0 mm 1 m/s 718 mmHg 87%
    23:00 +16°C° 0 mm 1 m/s 718 mmHg 87%

    25 Julho, Quarta-feira

    Tempo Temperatura Precipitação Vento Pressão Humidade
    00:00 +15°C° 0 mm 1 m/s 717 mmHg 88%
    01:00 +15°C° 0 mm 1 m/s 717 mmHg 89%
    02:00 +15°C° 0 mm 1 m/s 717 mmHg 89%
    03:00 +15°C° 0 mm 1 m/s 717 mmHg 89%
    04:00 +14°C° 0 mm 1 m/s 717 mmHg 89%
    05:00 +16°C° 0 mm 1 m/s 718 mmHg 84%
    06:00 +18°C° 0 mm 1 m/s 718 mmHg 78%
    07:00 +20°C° 0 mm 1 m/s 719 mmHg 73%
    08:00 +21°C° 0 mm 1 m/s 719 mmHg 67%
    09:00 +23°C° 0 mm 1 m/s 719 mmHg 62%
    10:00 +24°C° 0 mm 2 m/s 719 mmHg 56%
    11:00 +25°C° 0 mm 2 m/s 719 mmHg 53%
    12:00 +26°C° 0 mm 2 m/s 718 mmHg 50%
    13:00 +26°C° 0 mm 2 m/s 718 mmHg 48%
    14:00 +26°C° 0 mm 2 m/s 718 mmHg 49%
    15:00 +26°C° 0 mm 2 m/s 718 mmHg 51%
    16:00 +26°C° 0 mm 2 m/s 718 mmHg 53%
    17:00 +25°C° 0,2 mm 2 m/s 718 mmHg 59%
    18:00 +23°C° 0,2 mm 2 m/s 718 mmHg 65%
    19:00 +22°C° 0,2 mm 1 m/s 718 mmHg 70%
    20:00 +21°C° 0 mm 1 m/s 718 mmHg 73%
    21:00 +20°C° 0 mm 1 m/s 718 mmHg 76%
    22:00 +18°C° 0 mm 1 m/s 718 mmHg 79%
    23:00 +18°C° 0 mm 1 m/s 718 mmHg 80%
    Mostrar mais